Photometre #855[NE_1.6_Dp] Glasgow_MO AOT

File : 20190926_855.hum

26/09/2019,07:14:42,TEMP=12.4,BA=5.64,STAT.A,ExtBa=12.30
26/09/2019,07:19:23,TEMP=12.6,BA=5.64,STAT.A,ExtBa=12.30
26/09/2019,07:24:54,TEMP=12.6,BA=5.60,STAT.A,ExtBa=12.30
26/09/2019,07:31:28,TEMP=12.7,BA=5.64,STAT.A,ExtBa=12.30
26/09/2019,07:39:27,TEMP=12.8,BA=5.64,STAT.A,ExtBa=12.30
26/09/2019,07:49:22,TEMP=12.9,BA=5.60,STAT.A,ExtBa=12.30
26/09/2019,08:02:02,TEMP=13.3,BA=5.64,STAT.B,ExtBa=12.30
26/09/2019,08:11:22,TEMP=14.9,BA=5.60,STAT.A,ExtBa=12.20
26/09/2019,08:15:06,TEMP=14.9,BA=5.60,STAT.A,ExtBa=12.20
26/09/2019,08:23:00,TEMP=14.8,BA=5.64,STAT.A,ExtBa=12.20
26/09/2019,08:32:06,TEMP=14.7,BA=5.64,STAT.A,ExtBa=12.20
26/09/2019,08:42:44,TEMP=15.2,BA=5.64,STAT.C,ExtBa=12.20
26/09/2019,09:08:20,TEMP=16.9,BA=5.60,STAT.A,ExtBa=12.10
26/09/2019,09:10:20,TEMP=16.8,BA=5.64,STAT.F,ExtBa=12.10
26/09/2019,09:25:10,TEMP=14.8,BA=5.64,STAT.D,ExtBa=12.20
26/09/2019,09:40:10,TEMP=13.8,BA=5.60,STAT.D,ExtBa=12.20
26/09/2019,09:55:10,TEMP=15.5,BA=5.64,STAT.D,ExtBa=12.20
26/09/2019,10:10:12,TEMP=14.5,BA=5.60,STAT.F,ExtBa=12.20
26/09/2019,10:25:10,TEMP=13.7,BA=5.64,STAT.D,ExtBa=12.20
26/09/2019,10:40:10,TEMP=13.4,BA=5.60,STAT.D,ExtBa=12.20
26/09/2019,10:55:10,TEMP=13.6,BA=5.64,STAT.D,ExtBa=12.20
26/09/2019,11:10:12,TEMP=14.1,BA=5.60,STAT.F,ExtBa=12.20
26/09/2019,11:25:10,TEMP=14.0,BA=5.64,STAT.D,ExtBa=12.20
26/09/2019,11:40:10,TEMP=14.0,BA=5.60,STAT.D,ExtBa=12.20
26/09/2019,11:55:10,TEMP=14.0,BA=5.64,STAT.D,ExtBa=12.30
26/09/2019,12:10:12,TEMP=14.1,BA=5.60,STAT.F,ExtBa=12.30
26/09/2019,12:25:10,TEMP=14.1,BA=5.64,STAT.D,ExtBa=12.30
26/09/2019,12:40:10,TEMP=14.4,BA=5.60,STAT.D,ExtBa=12.30
26/09/2019,12:55:10,TEMP=14.5,BA=5.64,STAT.D,ExtBa=12.30
26/09/2019,13:10:12,TEMP=13.8,BA=5.60,STAT.F,ExtBa=12.30
26/09/2019,13:25:10,TEMP=14.3,BA=5.64,STAT.D,ExtBa=12.20
26/09/2019,13:40:10,TEMP=15.1,BA=5.60,STAT.D,ExtBa=12.20
26/09/2019,13:55:10,TEMP=15.3,BA=5.64,STAT.D,ExtBa=12.20
26/09/2019,14:10:12,TEMP=15.1,BA=5.60,STAT.F,ExtBa=12.20
26/09/2019,14:25:10,TEMP=15.1,BA=5.64,STAT.D,ExtBa=12.20
26/09/2019,14:40:10,TEMP=15.0,BA=5.60,STAT.D,ExtBa=12.20
26/09/2019,14:55:10,TEMP=14.1,BA=5.64,STAT.D,ExtBa=12.20
26/09/2019,15:10:11,TEMP=14.2,BA=5.60,STAT.F,ExtBa=12.20
26/09/2019,15:24:58,TEMP=14.5,BA=5.64,STAT.A,ExtBa=12.30
26/09/2019,15:37:38,TEMP=14.3,BA=5.64,STAT.C,ExtBa=12.30
26/09/2019,15:48:16,TEMP=14.1,BA=5.64,STAT.A,ExtBa=12.20
26/09/2019,15:57:22,TEMP=14.3,BA=5.64,STAT.A,ExtBa=12.20
26/09/2019,16:05:16,TEMP=14.1,BA=5.64,STAT.A,ExtBa=12.20
26/09/2019,16:12:11,TEMP=14.0,BA=5.64,STAT.A,ExtBa=12.20
26/09/2019,16:18:20,TEMP=13.8,BA=5.64,STAT.B,ExtBa=12.20
26/09/2019,16:31:00,TEMP=13.4,BA=5.64,STAT.A,ExtBa=12.20
26/09/2019,16:40:55,TEMP=13.3,BA=5.64,STAT.A,ExtBa=12.20
26/09/2019,16:48:54,TEMP=13.1,BA=5.64,STAT.A,ExtBa=12.20
26/09/2019,16:55:28,TEMP=13.0,BA=5.60,STAT.A,ExtBa=12.20
26/09/2019,17:00:59,TEMP=12.9,BA=5.64,STAT.A,ExtBa=12.20
26/09/2019,17:05:40,TEMP=12.9,BA=5.64,STAT.A,ExtBa=12.20